Weather History for KPIA - March, 2013

Change the Weather History Date:

Monday, March 18, 2013

  Actual Average Record
Temperature  
Mean Temperature 33 °F 42 °F  
Max Temperature 40 °F 51 °F 81 °F (2012)
Min Temperature 25 °F 32 °F 2 °F (1923)
Degree Days  
Heating Degree Days 32 24  
Month to date heating degree days 570 486  
Since 1 July heating degree days 4863 5002  
Cooling Degree Days 0 0  
Month to date cooling degree days 0 0  
Year to date cooling degree days 0 0  
Moisture  
Dew Point 28 °F    
Average Humidity 78    
Maximum Humidity 100    
Minimum Humidity 55    
Precipitation  
Precipitation 0.02 in 0.09 in 1.50 in (1952)
Month to date precipitation 1.87 1.53  
Year to date precipitation 8.60 5.10  
Snow  
Snow T in 0.00 in 2.50 in (1925)
Month to date snowfall 3.2 1.9  
Since 1 July snowfall 15.1 23.2  
Snow Depth 0.00 in    
Sea Level Pressure  
Sea Level Pressure 29.78 in    
Wind  
Wind Speed 12 mph (NNE)    
Max Wind Speed 24 mph    
Max Gust Speed 33 mph    
Visibility 7 miles    
Events Rain    
T = Trace of Precipitation, MM = Missing Value Source: NWS Daily Summary

Daily Weather History Graph

Daily Weather History Graph

Search for Another Location

Airport or City:

Trip Planner

Search our weather history database for the weather conditions in past years. The results will help you decide how hot, cold, wet, or windy it might be!

Date:

Astronomy

Mar. 18, 2013 Rise Set
Actual Time 7:04 AM CDT 7:08 PM CDT
Civil Twilight 6:37 AM CDT 7:36 PM CDT
Nautical Twilight 6:05 AM CDT 8:08 PM CDT
Astronomical Twilight 5:33 AM CDT 8:40 PM CDT
Moon 11:02 AM CDT (3/18) 1:10 AM CDT (3/18)
Length of Visible Light 12h 58m
Length of Day
12h 04m
Waxing Crescent, 41% of the Moon is Illuminated
Mar 18
Waxing Crescent
Mar 19
First Quarter
Mar 27
Full
Apr 2
Last Quarter
Apr 10
New

Hourly Weather History & Observations

Time (CDT) Temp. Windchill Dew Point Humidity Pressure Visibility Wind Dir Wind Speed Gust Speed Precip Events Conditions
12:54 AM 33.1 °F 23.9 °F 28.0 °F 82% 29.88 in 9.0 mi East 12.7 mph - 0.01 in   Overcast
1:28 AM 33.1 °F 23.9 °F 28.0 °F 82% 29.84 in 8.0 mi East 12.7 mph - 0.01 in Rain Light Rain
1:50 AM 32.0 °F 20.8 °F 28.4 °F 87% 29.83 in 6.0 mi East 17.3 mph - 0.01 in Rain Light Freezing Rain
1:51 AM 32.0 °F 20.8 °F 28.9 °F 88% 29.84 in 6.0 mi East 17.3 mph - 0.01 in Rain Light Freezing Rain
2:13 AM 32.0 °F 22.1 °F 28.9 °F 88% 29.82 in 7.0 mi East 13.8 mph 23.0 mph 0.00 in Rain Light Freezing Rain
2:26 AM 32.0 °F 21.6 °F 28.9 °F 88% 29.81 in 7.0 mi East 15.0 mph - 0.00 in   Overcast
2:42 AM 32.0 °F 21.6 °F 28.4 °F 87% 29.80 in 6.0 mi East 15.0 mph - N/A Rain Light Freezing Rain
2:54 AM 32.0 °F 22.1 °F 28.9 °F 88% 29.82 in 6.0 mi East 13.8 mph - 0.00 in Rain Light Freezing Rain
3:07 AM 32.0 °F 23.0 °F 28.9 °F 88% 29.80 in 7.0 mi East 11.5 mph - 0.00 in   Overcast
3:54 AM 32.0 °F 23.0 °F 28.9 °F 88% 29.79 in 7.0 mi ENE 11.5 mph - 0.00 in   Overcast
4:15 AM 32.0 °F 24.2 °F 28.9 °F 88% 29.77 in 6.0 mi East 9.2 mph - 0.00 in Rain Light Freezing Rain
4:22 AM 32.0 °F 23.0 °F 28.9 °F 88% 29.76 in 6.0 mi East 11.5 mph - 0.00 in   Overcast
4:30 AM 32.0 °F 23.6 °F 28.9 °F 88% 29.76 in 4.0 mi ENE 10.4 mph - 0.00 in Rain Light Freezing Rain
4:54 AM 32.0 °F 23.6 °F 28.9 °F 88% 29.77 in 4.0 mi East 10.4 mph - 0.01 in Rain Light Freezing Rain
5:07 AM 32.0 °F 23.0 °F 28.9 °F 88% 29.74 in 5.0 mi East 11.5 mph - 0.00 in   Overcast
5:54 AM 32.0 °F 23.0 °F 28.9 °F 88% 29.76 in 6.0 mi ENE 11.5 mph - 0.00 in   Overcast
6:54 AM 32.0 °F 24.2 °F 28.9 °F 88% 29.74 in 7.0 mi ENE 9.2 mph - N/A   Overcast
7:47 AM 30.9 °F 22.8 °F 28.9 °F 92% 29.71 in 2.5 mi ENE 9.2 mph - 0.00 in Rain Light Freezing Rain
7:54 AM 30.9 °F 22.8 °F 28.9 °F 92% 29.73 in 2.0 mi ENE 9.2 mph - 0.00 in   Overcast
8:03 AM 30.9 °F 22.8 °F 30.0 °F 96% 29.71 in 1.8 mi ENE 9.2 mph - N/A   Overcast
8:25 AM 30.9 °F 22.8 °F 30.0 °F 96% 29.71 in 2.0 mi NE 9.2 mph - N/A   Overcast
8:44 AM 30.9 °F 24.3 °F 30.0 °F 96% 29.72 in 3.0 mi East 6.9 mph - N/A   Overcast
8:54 AM 30.9 °F 27.5 °F 30.0 °F 96% 29.74 in 3.0 mi East 3.5 mph - N/A   Overcast
9:39 AM 32.0 °F - 30.0 °F 92% 29.71 in 2.5 mi Calm Calm - 0.00 in Rain Light Freezing Rain
9:54 AM 32.0 °F 28.7 °F 30.0 °F 92% 29.72 in 1.5 mi North 3.5 mph - 0.00 in Rain Light Freezing Rain
10:12 AM 32.0 °F 28.7 °F 30.0 °F 92% 29.69 in 1.8 mi North 3.5 mph - 0.00 in   Overcast
10:27 AM 33.1 °F 30.0 °F 30.9 °F 92% 29.69 in 2.5 mi NE 3.5 mph - 0.00 in   Overcast
10:35 AM 32.0 °F - 30.0 °F 92% 29.71 in 4.0 mi Calm Calm - 0.00 in   Overcast
10:54 AM 33.1 °F 28.7 °F 30.0 °F 89% 29.73 in 8.0 mi West 4.6 mph - 0.00 in   Overcast
11:54 AM 34.0 °F 29.8 °F 30.9 °F 89% 29.72 in 8.0 mi WNW 4.6 mph - N/A   Overcast
12:54 PM 35.1 °F 28.6 °F 33.1 °F 92% 29.72 in 4.0 mi West 8.1 mph - 0.00 in   Overcast
1:42 PM 37.0 °F 28.9 °F 33.1 °F 86% 29.71 in 10.0 mi West 12.7 mph - N/A   Overcast
1:54 PM 37.0 °F 28.1 °F 33.1 °F 86% 29.73 in 8.0 mi West 15.0 mph 21.9 mph N/A   Overcast
2:54 PM 37.9 °F 29.2 °F 33.1 °F 83% 29.72 in 10.0 mi West 15.0 mph 24.2 mph N/A   Overcast
3:26 PM 37.9 °F 28.9 °F 33.1 °F 83% 29.70 in 10.0 mi West 16.1 mph 26.5 mph N/A   Overcast
3:54 PM 39.0 °F 30.6 °F 32.0 °F 76% 29.73 in 10.0 mi West 15.0 mph 24.2 mph N/A   Overcast
4:42 PM 39.2 °F 29.3 °F 30.2 °F 70% 29.72 in 10.0 mi West 20.7 mph 31.1 mph N/A   Mostly Cloudy
4:54 PM 39.9 °F 31.8 °F 30.0 °F 68% 29.74 in 10.0 mi WNW 15.0 mph 27.6 mph N/A   Mostly Cloudy
5:54 PM 36.0 °F 26.3 °F 25.0 °F 64% 29.78 in 10.0 mi WNW 16.1 mph 29.9 mph N/A   Scattered Clouds
6:54 PM 30.9 °F 20.7 °F 19.9 °F 64% 29.84 in 10.0 mi WNW 13.8 mph 31.1 mph N/A   Mostly Cloudy
7:54 PM 28.9 °F 17.7 °F 18.0 °F 64% 29.88 in 10.0 mi WNW 15.0 mph 28.8 mph N/A   Clear
8:54 PM 27.0 °F 13.2 °F 15.1 °F 61% 29.91 in 10.0 mi WNW 20.7 mph 31.1 mph N/A   Mostly Cloudy
9:54 PM 26.1 °F 13.1 °F 15.1 °F 63% 29.94 in 10.0 mi WNW 17.3 mph 31.1 mph N/A   Mostly Cloudy
10:54 PM 26.1 °F 12.7 °F 12.9 °F 58% 29.95 in 10.0 mi WNW 18.4 mph 29.9 mph N/A   Overcast
11:54 PM 26.1 °F 14.0 °F 14.0 °F 60% 29.96 in 10.0 mi WNW 15.0 mph 24.2 mph N/A   Overcast